EN

Hourly Weather Altuhovo

Today, 16 January, Saturday

Time Temperature Precipitation Wind Pressure Humidity
00:00 -16°C° 0.2 mm 3 mps 742 mmHg 95%
01:00 -16°C° 0.3 mm 3 mps 742 mmHg 95%
02:00 -18°C° 0.3 mm 4 mps 741 mmHg 95%
03:00 -17°C° 0 mm 4 mps 741 mmHg 95%
04:00 -17°C° 0.4 mm 4 mps 740 mmHg 95%
05:00 -17°C° 0.4 mm 4 mps 740 mmHg 95%
06:00 -17°C° 0.4 mm 4 mps 739 mmHg 95%
07:00 -18°C° 0.7 mm 4 mps 739 mmHg 95%
08:00 -18°C° 0.7 mm 4 mps 739 mmHg 94%
09:00 -19°C° 0.7 mm 5 mps 738 mmHg 94%
10:00 -18°C° 0.7 mm 5 mps 738 mmHg 94%
11:00 -18°C° 0.7 mm 5 mps 738 mmHg 94%
12:00 -18°C° 0.7 mm 5 mps 738 mmHg 94%
13:00 -18°C° 0.5 mm 5 mps 738 mmHg 94%
14:00 -18°C° 0.5 mm 5 mps 738 mmHg 94%
15:00 -18°C° 0.5 mm 5 mps 738 mmHg 94%
16:00 -19°C° 0.4 mm 5 mps 738 mmHg 94%
17:00 -19°C° 0.4 mm 5 mps 738 mmHg 94%
18:00 -19°C° 0.4 mm 5 mps 739 mmHg 94%
19:00 -19°C° 0.1 mm 4 mps 739 mmHg 94%
20:00 -19°C° 0.1 mm 4 mps 739 mmHg 94%
21:00 -19°C° 0.1 mm 4 mps 740 mmHg 94%
22:00 -20°C° 0.1 mm 4 mps 740 mmHg 94%
23:00 -20°C° 0.1 mm 4 mps 740 mmHg 94%

Tomorrow, 17 January, Sunday

Time Temperature Precipitation Wind Pressure Humidity
00:00 -20°C° 0.1 mm 4 mps 741 mmHg 94%
01:00 -21°C° 0 mm 3 mps 741 mmHg 94%
02:00 -21°C° 0 mm 3 mps 742 mmHg 95%
03:00 -21°C° 0 mm 3 mps 742 mmHg 95%
04:00 -22°C° 0 mm 3 mps 742 mmHg 95%
05:00 -22°C° 0 mm 3 mps 742 mmHg 95%
06:00 -22°C° 0 mm 3 mps 743 mmHg 95%
07:00 -23°C° 0 mm 3 mps 743 mmHg 95%
08:00 -23°C° 0 mm 3 mps 744 mmHg 96%
09:00 -23°C° 0 mm 2 mps 744 mmHg 96%
10:00 -24°C° 0 mm 3 mps 745 mmHg 96%
11:00 -24°C° 0 mm 3 mps 745 mmHg 95%
12:00 -24°C° 0 mm 3 mps 746 mmHg 94%
13:00 -23°C° 0 mm 2 mps 746 mmHg 94%
14:00 -23°C° 0 mm 2 mps 746 mmHg 94%
15:00 -23°C° 0 mm 2 mps 746 mmHg 94%
16:00 -24°C° 0 mm 2 mps 747 mmHg 95%
17:00 -25°C° 0 mm 2 mps 747 mmHg 95%
18:00 -23°C° 0 mm 1 mps 747 mmHg 96%
19:00 -26°C° 0 mm 2 mps 748 mmHg 96%
20:00 -26°C° 0 mm 2 mps 748 mmHg 96%
21:00 -27°C° 0 mm 2 mps 748 mmHg 96%
22:00 -24°C° 0 mm 1 mps 748 mmHg 96%
23:00 -24°C° 0 mm 1 mps 749 mmHg 96%

Day after tomorrow, 18 January, Monday

Time Temperature Precipitation Wind Pressure Humidity
00:00 -24°C° 0 mm 1 mps 749 mmHg 96%
01:00 -24°C° 0 mm 1 mps 749 mmHg 96%
02:00 -24°C° 0 mm 1 mps 749 mmHg 96%
03:00 -25°C° 0 mm 1 mps 749 mmHg 96%
04:00 -25°C° 0 mm 1 mps 749 mmHg 96%
05:00 -27°C° 0 mm 1 mps 749 mmHg 97%
06:00 -26°C° 0 mm 0 mps 749 mmHg 97%
07:00 -27°C° 0 mm 0 mps 749 mmHg 97%
08:00 -27°C° 0 mm 0 mps 749 mmHg 97%
09:00 -27°C° 0 mm 0 mps 749 mmHg 97%
10:00 -25°C° 0 mm 0 mps 750 mmHg 96%
11:00 -24°C° 0 mm 0 mps 750 mmHg 95%
12:00 -23°C° 0 mm 1 mps 750 mmHg 93%
13:00 -22°C° 0 mm 1 mps 750 mmHg 94%
14:00 -22°C° 0 mm 1 mps 750 mmHg 94%
15:00 -22°C° 0 mm 1 mps 749 mmHg 94%
16:00 -23°C° 0 mm 1 mps 749 mmHg 94%
17:00 -23°C° 0 mm 1 mps 749 mmHg 94%
18:00 -24°C° 0 mm 0 mps 749 mmHg 94%
19:00 -23°C° 0 mm 1 mps 749 mmHg 94%
20:00 -23°C° 0 mm 1 mps 750 mmHg 94%
21:00 -23°C° 0 mm 1 mps 750 mmHg 93%
22:00 -22°C° 0 mm 1 mps 749 mmHg 93%
23:00 -22°C° 0 mm 1 mps 749 mmHg 93%

19 January, Tuesday

Time Temperature Precipitation Wind Pressure Humidity
00:00 -22°C° 0 mm 1 mps 749 mmHg 93%
01:00 -22°C° 0 mm 1 mps 749 mmHg 93%
02:00 -22°C° 0 mm 1 mps 749 mmHg 93%
03:00 -21°C° 0 mm 1 mps 749 mmHg 93%
04:00 -21°C° 0 mm 1 mps 749 mmHg 93%
05:00 -21°C° 0 mm 1 mps 749 mmHg 93%
06:00 -21°C° 0 mm 1 mps 749 mmHg 94%
07:00 -21°C° 0 mm 1 mps 749 mmHg 93%
08:00 -21°C° 0 mm 1 mps 749 mmHg 93%
09:00 -21°C° 0 mm 1 mps 749 mmHg 93%
10:00 -20°C° 0 mm 1 mps 749 mmHg 92%
11:00 -20°C° 0 mm 1 mps 749 mmHg 92%
12:00 -19°C° 0 mm 1 mps 749 mmHg 91%
13:00 -19°C° 0 mm 1 mps 749 mmHg 92%
14:00 -19°C° 0 mm 1 mps 748 mmHg 92%
15:00 -18°C° 0 mm 1 mps 748 mmHg 93%
16:00 -19°C° 0 mm 1 mps 748 mmHg 93%
17:00 -19°C° 0 mm 1 mps 749 mmHg 94%
18:00 -19°C° 0 mm 1 mps 749 mmHg 94%
19:00 -21°C° 0 mm 2 mps 749 mmHg 95%
20:00 -21°C° 0 mm 2 mps 749 mmHg 96%
21:00 -21°C° 0 mm 2 mps 750 mmHg 96%
22:00 -21°C° 0 mm 2 mps 750 mmHg 97%
23:00 -21°C° 0 mm 2 mps 750 mmHg 98%

20 January, Wednesday

Time Temperature Precipitation Wind Pressure Humidity
00:00 -23°C° 0 mm 2 mps 750 mmHg 98%
01:00 -23°C° 0 mm 2 mps 750 mmHg 98%
02:00 -23°C° 0 mm 2 mps 750 mmHg 98%
03:00 -23°C° 0 mm 2 mps 751 mmHg 98%
04:00 -23°C° 0 mm 2 mps 751 mmHg 98%
05:00 -23°C° 0 mm 2 mps 751 mmHg 98%
06:00 -23°C° 0 mm 2 mps 751 mmHg 98%
07:00 -23°C° 0 mm 2 mps 751 mmHg 98%
08:00 -23°C° 0 mm 2 mps 752 mmHg 98%
09:00 -23°C° 0 mm 2 mps 752 mmHg 98%
10:00 -21°C° 0 mm 2 mps 752 mmHg 97%
11:00 -19°C° 0 mm 2 mps 752 mmHg 96%
12:00 -18°C° 0 mm 2 mps 753 mmHg 95%
13:00 -18°C° 0 mm 2 mps 753 mmHg 95%
14:00 -18°C° 0 mm 2 mps 753 mmHg 94%
15:00 -17°C° 0 mm 2 mps 753 mmHg 94%
16:00 -18°C° 0 mm 2 mps 753 mmHg 94%
17:00 -19°C° 0 mm 2 mps 753 mmHg 94%
18:00 -19°C° 0 mm 2 mps 753 mmHg 95%
19:00 -20°C° 0 mm 2 mps 753 mmHg 95%
20:00 -22°C° 0 mm 3 mps 753 mmHg 95%
21:00 -22°C° 0 mm 3 mps 753 mmHg 94%
22:00 -22°C° 0 mm 3 mps 753 mmHg 94%
23:00 -22°C° 0 mm 3 mps 753 mmHg 94%

21 January, Thursday

Time Temperature Precipitation Wind Pressure Humidity
00:00 -22°C° 0 mm 3 mps 753 mmHg 94%
01:00 -22°C° 0 mm 4 mps 753 mmHg 94%
02:00 -22°C° 0 mm 4 mps 753 mmHg 93%
03:00 -22°C° 0 mm 4 mps 752 mmHg 93%
04:00 -21°C° 0 mm 5 mps 752 mmHg 92%
05:00 -20°C° 0 mm 5 mps 751 mmHg 91%
06:00 -20°C° 0 mm 5 mps 751 mmHg 91%
07:00 -20°C° 0 mm 6 mps 750 mmHg 91%
08:00 -18°C° 0 mm 6 mps 750 mmHg 90%
09:00 -18°C° 0 mm 7 mps 749 mmHg 90%
10:00 -17°C° 0.2 mm 7 mps 749 mmHg 91%
11:00 -14°C° 0.2 mm 7 mps 748 mmHg 92%
12:00 -13°C° 0.2 mm 8 mps 748 mmHg 93%
13:00 -12°C° 0.5 mm 8 mps 747 mmHg 93%
14:00 -11°C° 0.5 mm 8 mps 747 mmHg 93%
15:00 -10°C° 0.5 mm 8 mps 746 mmHg 94%
16:00 -9°C° 0.4 mm 7 mps 746 mmHg 94%
17:00 -8°C° 0.4 mm 7 mps 746 mmHg 94%
18:00 -7°C° 0.4 mm 7 mps 746 mmHg 94%
19:00 -6°C° 0.2 mm 6 mps 746 mmHg 94%
20:00 -5°C° 0.2 mm 5 mps 746 mmHg 93%
21:00 -5°C° 0.2 mm 5 mps 746 mmHg 93%
22:00 -5°C° 0 mm 5 mps 746 mmHg 93%
23:00 -4°C° 0 mm 5 mps 746 mmHg 94%
Show more